Location: Cella
(44.7333°N, 10.5667°E)
Time: 13:49:52
(UTC+00:00)

Meteor 2-4 Rocket - Pass Details

Date: 03 March 2021
Orbit: 799 x 908 km, 81.2° (Epoch: 23 April)

Event Time Altitude Azimuth Distance (km) Brightness Sun altitude
Rises 18:46:15 0° 347° (NNW) 3,492 7.2 -18.2°
Reaches altitude 10° 18:48:41 10° 346° (NNW) 2,562 6.5 -18.6°
Maximum altitude 18:54:31 73° 263° (W) 944 4.0 -19.6°
Drops below altitude 10° 19:00:24 10° 180° (S) 2,583 6.1 -20.6°
Sets 19:02:52 0° 178° (S) 3,522 6.8 -21.1°
